GFSSGP_850_spd_021.txt.gz
Wind_Speed
3 4 6 3 3 2 4 8 10 7 7 16 14 9 3 7 6 5 20 20 14 8 15 15 16 16 14 13 12 12 10 8 6 4 4 4 4 4 5 5 5 5 5 4 4 4 5 5 5
4 6 1 3 1 2 5 9 1 4 6 16 14 5 8 7 26 22 20 13 7 3 11 15 17 16 15 14 14 13 12 10 7 5 3 2 3 3 4 5 5 5 5 5 5 5 4 4 4
11 7 4 3 4 6 5 6 6 6 12 12 4 5 2 8 17 15 14 15 6 6 10 15 17 16 15 15 14 14 13 11 8 5 3 1 2 4 5 6 4 4 5 5 6 7 7 6 5
8 4 6 2 9 13 11 11 6 5 4 26 17 2 7 10 9 14 12 9 6 8 8 16 20 18 17 17 16 15 15 12 10 7 3 1 3 5 6 6 6 5 6 7 9 9 9 9 9
7 3 3 4 9 14 14 20 22 13 17 38 22 7 14 20 16 11 8 9 10 9 12 14 24 23 20 20 19 18 16 14 12 9 6 3 3 6 7 7 7 7 8 8 9 11 13 13 12
6 4 3 5 11 17 16 24 9 10 3 13 5 13 9 17 14 8 4 7 14 17 17 14 21 26 23 23 21 20 19 17 15 13 10 7 7 8 8 10 9 9 9 10 13 15 17 17 15
5 2 6 8 15 19 16 20 5 4 8 7 9 5 20 20 10 7 8 4 19 22 22 20 21 25 26 25 24 23 22 20 19 17 14 12 11 10 11 11 8 8 9 11 13 15 17 19 19
6 1 5 6 13 20 19 18 17 10 1 3 11 3 4 15 8 8 9 2 5 19 24 25 24 25 27 29 27 27 26 24 23 22 19 17 15 13 13 12 9 10 9 12 13 15 15 17 17
16 3 5 11 11 16 26 13 22 19 7 12 16 13 20 20 22 6 7 10 8 13 19 25 25 26 26 30 30 30 29 29 28 27 24 22 20 16 14 13 11 10 10 11 11 15 10 11 13
16 6 10 11 15 17 20 16 28 21 11 18 25 20 32 29 15 14 12 14 15 17 22 26 29 28 30 28 28 32 32 33 34 33 29 26 23 19 16 12 11 8 9 10 11 9 8 6 10
25 22 16 20 27 31 25 26 26 21 8 12 11 18 18 22 26 11 13 17 18 22 20 15 23 28 34 29 26 29 31 35 37 37 32 30 26 22 18 11 11 9 12 11 11 8 9 7 4
19 27 28 23 32 34 24 31 25 26 22 28 31 34 26 23 21 19 17 16 19 26 19 25 17 30 37 31 29 28 25 32 39 39 35 34 29 23 19 13 12 13 13 11 11 11 10 9 8
25 21 27 30 31 36 40 32 27 31 36 36 30 34 33 29 33 32 22 19 22 29 19 17 20 25 36 36 31 30 26 27 29 26 30 35 30 22 16 15 12 15 17 16 11 11 16 13 12
22 23 28 28 34 35 28 30 31 31 32 34 35 40 41 33 30 32 28 27 26 26 15 16 19 23 31 37 33 31 27 27 26 24 23 25 21 16 15 14 13 17 20 17 18 15 17 19 18
27 20 19 26 29 28 32 28 29 34 34 38 35 37 34 34 38 38 38 38 33 14 12 18 18 22 32 34 34 33 29 26 26 24 21 20 18 16 15 17 21 20 19 20 16 22 22 22 21
18 15 21 22 20 29 18 40 20 30 35 29 37 43 37 35 36 36 30 33 20 19 19 22 21 23 28 34 36 34 27 25 23 23 23 21 19 18 18 18 19 19 19 20 18 19 23 23 21
17 21 22 24 22 18 14 33 17 32 32 34 43 43 42 43 38 33 27 26 32 31 24 22 25 25 27 30 38 38 31 30 22 28 28 24 19 18 17 16 15 15 18 20 20 20 20 20 20
12 21 24 29 11 18 23 31 29 43 36 36 38 37 38 35 31 27 32 31 26 23 21 20 26 26 28 28 35 38 35 28 27 21 21 18 15 16 16 11 14 18 21 21 20 19 17 17 16
15 18 21 20 18 15 23 25 25 24 20 20 27 33 33 36 44 32 26 16 18 24 24 20 25 28 28 31 34 33 38 28 26 22 13 16 15 13 10 14 19 21 22 20 18 16 16 17 15
19 23 24 15 12 13 20 18 22 23 14 26 35 30 27 31 28 24 27 32 34 25 18 19 24 26 28 31 33 29 29 26 21 21 19 19 17 19 19 16 18 18 20 19 15 13 14 13 13
25 26 20 19 10 17 15 15 19 17 19 20 24 28 32 29 30 32 33 28 28 21 21 19 24 25 28 29 25 21 23 20 17 23 21 19 19 19 14 15 19 17 16 13 11 10 10 10 11
24 15 21 18 11 16 10 16 21 13 17 19 25 30 40 40 41 44 37 33 26 22 20 19 20 25 26 23 21 22 22 21 17 17 19 19 17 15 15 15 14 12 10 8 7 8 8 11 14
24 15 18 13 16 17 19 9 18 9 8 9 10 24 29 32 37 38 31 20 23 22 19 15 22 23 21 19 20 22 22 15 18 18 14 14 14 13 14 14 9 5 6 6 7 8 9 11 12
17 16 18 16 12 11 19 15 25 14 11 9 9 22 31 34 20 24 19 19 24 20 15 17 20 23 22 21 23 20 22 18 15 15 12 10 9 11 15 11 7 5 4 5 4 2 3 3 5
16 12 6 10 10 17 14 12 18 7 13 22 15 22 16 5 13 24 28 28 25 21 18 18 23 25 24 22 20 20 18 17 19 14 10 10 10 8 7 8 7 4 5 3 1 2 2 2 3
13 15 9 13 12 17 13 8 11 19 12 20 23 22 17 24 28 31 32 29 24 21 19 23 27 26 26 21 19 19 15 15 11 10 9 10 9 5 6 6 3 5 3 3 4 3 3 2 4
19 16 20 17 10 8 5 13 21 26 20 11 14 18 28 31 30 29 26 23 23 21 23 28 25 26 25 21 19 13 12 11 10 10 6 5 2 7 6 3 2 1 0 3 6 7 7 5 3
18 11 7 11 13 13 7 13 12 12 19 16 8 17 28 33 31 28 26 26 23 23 24 24 22 27 22 19 16 11 11 8 7 7 4 3 10 8 3 3 3 2 2 3 4 5 4 5 6
7 16 11 9 7 11 6 10 11 19 15 11 12 26 33 36 34 31 30 26 23 26 24 21 23 23 20 19 14 12 10 5 4 1 3 9 10 7 6 6 6 6 5 2 2 2 6 6 5
18 21 16 9 19 9 4 9 8 6 7 10 14 28 34 38 34 33 32 28 28 27 23 22 21 22 17 19 13 12 8 7 7 4 6 12 11 12 6 3 2 5 8 6 4 3 9 9 5

GFSSGP_850_spd_024.txt.gz
Wind_Speed
1 3 6 3 2 3 3 6 5 6 8 16 10 8 7 5 5 4 19 20 15 13 19 21 20 17 14 12 11 10 10 8 7 6 5 5 4 4 3 3 1 1 2 3 3 4 5 6 6
5 7 4 1 3 1 4 6 7 2 4 17 21 11 8 3 15 17 20 21 14 12 19 18 20 19 16 15 14 12 12 11 8 6 4 3 2 3 3 3 2 1 2 2 3 4 5 5 6
8 7 3 3 3 5 4 5 5 6 7 12 5 12 5 9 16 23 17 18 16 13 12 14 19 20 19 18 16 16 15 13 11 9 5 3 1 2 4 5 3 2 2 3 4 4 5 6 7
8 4 2 1 8 7 5 13 3 5 4 3 9 2 8 12 18 15 16 14 10 10 11 13 20 21 21 21 20 20 19 17 15 11 8 5 2 1 3 4 4 4 4 4 5 7 7 8 8
9 2 1 3 6 6 11 13 16 6 4 6 14 6 5 16 16 15 10 7 4 9 10 15 22 22 23 24 23 23 21 20 17 15 12 8 6 3 3 4 4 5 5 5 7 8 9 13 12
3 2 1 5 7 7 5 12 19 7 4 15 9 3 8 17 13 8 7 6 5 13 13 16 20 27 25 27 26 26 25 22 20 18 16 13 10 7 5 5 6 5 5 6 8 10 13 15 16
5 3 4 4 5 6 0 13 7 5 5 4 11 6 10 18 8 5 7 10 8 14 17 20 22 26 31 29 29 29 28 25 23 21 20 17 14 12 8 7 8 6 5 4 7 9 13 14 15
5 4 3 5 5 7 5 19 16 14 10 10 8 6 7 16 14 12 11 15 9 18 22 22 25 27 34 34 32 31 30 29 26 25 23 20 18 15 12 10 9 8 6 5 5 7 11 12 14
14 0 5 6 6 7 14 8 40 17 17 8 2 10 10 13 9 17 18 18 14 20 20 25 27 30 32 38 34 34 33 31 29 27 27 24 23 19 15 13 11 8 6 5 6 8 8 8 10
8 7 9 9 5 5 8 7 26 27 20 19 20 8 18 16 4 12 14 15 11 10 16 19 24 32 34 38 39 39 37 36 35 33 31 30 25 21 18 16 14 9 7 8 8 7 7 7 8
7 14 13 17 19 20 17 18 16 23 16 19 7 21 25 19 20 25 23 23 20 19 20 19 19 29 35 39 39 41 40 40 39 38 35 32 28 24 21 18 16 11 10 10 10 10 9 7 6
14 20 22 23 27 24 17 26 21 23 28 28 30 29 27 19 16 20 24 23 22 21 24 23 23 24 33 39 38 39 42 43 41 41 39 34 31 27 23 20 18 13 13 12 11 12 10 10 8
20 19 23 25 28 32 31 27 25 33 36 34 33 31 25 29 30 31 32 30 28 25 24 27 27 21 25 33 37 39 40 41 40 41 40 36 32 28 23 20 18 15 15 15 14 15 14 14 13
5 9 19 28 30 32 22 26 30 35 37 39 35 36 38 38 36 35 34 31 33 31 30 28 27 21 21 26 33 39 41 39 38 37 37 33 28 27 24 19 16 18 18 17 16 18 18 17 16
21 10 14 22 18 19 26 26 28 34 38 34 35 38 39 39 33 35 40 37 34 31 34 30 26 21 21 22 25 33 42 40 36 30 27 25 21 19 18 16 17 18 17 18 18 19 20 21 22
3 4 17 21 18 15 12 35 20 26 28 33 37 40 43 45 45 48 45 41 38 32 25 30 29 22 21 22 26 30 39 40 34 28 26 24 20 19 17 17 16 16 21 23 21 18 19 22 25
7 17 20 26 6 4 11 39 15 29 31 27 28 34 38 46 46 47 45 42 40 27 22 28 25 19 21 22 26 31 38 38 32 27 25 24 21 19 14 17 13 16 21 20 19 20 21 21 23
9 19 19 16 6 13 18 36 21 29 30 33 37 42 40 43 45 48 45 41 41 27 23 31 22 18 21 22 29 34 37 33 28 25 25 22 20 17 16 15 15 17 17 20 21 20 19 20 19
10 11 10 5 10 11 22 24 21 22 24 20 27 32 39 43 43 39 38 36 27 23 19 25 23 19 21 28 33 35 37 31 27 24 24 22 16 16 15 16 15 16 19 21 18 18 18 18 17
14 16 19 6 9 15 18 28 24 23 23 28 33 34 36 41 40 35 25 23 26 27 26 26 29 24 25 31 33 38 35 28 24 24 21 14 17 18 17 15 14 17 20 19 18 17 18 17 14
16 19 12 8 12 22 9 19 8 15 14 21 27 36 33 29 34 36 30 26 30 32 28 23 24 26 30 30 32 34 33 25 22 21 19 15 14 15 14 15 17 17 19 18 16 13 12 10 12
19 12 13 16 13 13 8 19 22 14 22 16 20 28 33 37 39 39 37 37 35 28 20 21 22 24 28 27 28 30 34 31 26 20 16 17 16 16 17 18 16 15 15 12 9 8 10 11 12
19 10 16 13 8 15 16 6 25 10 16 17 15 30 31 32 36 37 32 35 30 21 21 21 20 20 24 20 21 23 25 25 21 17 19 19 20 19 17 15 13 12 9 8 7 8 8 10 12
6 9 15 12 2 8 14 11 9 14 15 8 9 21 31 33 30 34 35 25 23 24 21 19 18 21 19 18 18 20 22 21 20 19 20 19 16 14 14 14 13 9 6 5 5 6 5 6 8
4 1 3 2 5 16 12 10 21 9 8 15 16 23 34 32 26 23 17 22 28 26 22 20 21 22 21 21 23 21 21 19 18 18 17 15 12 11 12 13 10 7 5 4 5 5 4 5 5
7 9 5 7 4 4 12 9 7 16 20 37 34 34 25 16 15 18 24 29 27 24 22 23 24 26 25 24 22 21 21 15 17 16 13 9 10 10 11 8 7 6 5 6 6 4 5 4 5
4 10 5 6 15 1 5 8 9 19 24 21 20 12 16 20 23 27 27 26 24 23 24 26 26 28 26 25 23 21 16 16 14 12 9 7 8 9 6 5 3 2 2 5 6 6 6 6 5
7 5 5 3 7 6 5 6 8 7 11 12 12 11 21 25 27 28 27 24 22 22 24 26 27 28 26 23 21 16 12 11 10 8 8 7 7 8 7 5 4 2 2 4 6 6 7 6 7
3 1 3 3 4 8 3 6 11 11 13 18 8 21 32 32 32 30 26 23 22 24 27 28 28 26 23 19 15 14 12 7 5 3 6 7 9 8 9 6 4 2 2 4 4 6 6 8 9
4 6 5 3 6 5 2 12 17 8 12 12 14 25 30 34 33 29 27 26 27 28 26 26 27 24 21 18 16 14 9 6 4 3 5 11 11 11 6 2 2 4 6 4 5 7 9 9 8

GFSSGP_850_spd_030.txt.gz
Wind_Speed
6 5 7 5 2 4 3 6 3 3 3 2 2 9 13 7 7 5 20 20 18 18 21 23 21 18 16 14 14 13 12 11 11 10 9 8 8 8 7 6 4 3 2 3 3 3 4 4 5
7 6 6 2 3 2 5 4 7 6 3 14 2 8 4 5 7 5 23 24 20 16 21 23 20 19 17 16 16 15 14 12 11 10 10 8 7 6 6 5 4 3 2 2 1 1 2 2 2
7 9 1 3 4 6 5 4 5 4 15 9 4 8 4 5 13 22 23 22 18 19 21 19 19 19 19 19 18 16 16 15 12 10 9 8 7 6 5 5 4 3 1 1 1 0 2 3 3
8 5 1 1 7 6 6 3 2 8 19 1 10 4 4 6 12 21 22 21 16 16 20 19 17 19 20 20 19 18 17 16 14 12 11 9 9 7 5 4 4 3 1 0 0 1 2 4 5
10 3 2 3 6 5 5 12 10 7 5 10 2 4 2 6 16 20 20 18 12 12 14 17 17 20 22 22 22 21 20 19 18 16 14 12 10 8 5 2 2 2 1 1 1 1 2 4 7
5 2 2 6 6 4 6 13 7 4 6 7 6 5 2 11 11 16 15 15 12 10 13 14 16 24 25 25 25 24 24 23 22 20 17 15 13 10 7 5 2 1 1 2 2 3 3 5 7
5 4 4 3 4 5 5 8 6 6 2 7 2 3 2 14 11 15 13 13 12 13 13 16 19 24 28 29 29 28 28 26 25 23 21 19 17 14 11 8 5 3 2 3 3 3 4 6 8
6 4 3 5 5 6 5 4 7 4 1 8 9 1 3 9 9 10 13 15 13 14 16 19 20 24 28 31 33 32 31 29 28 26 25 24 21 18 15 12 8 6 5 5 3 3 4 5 7
7 2 5 7 8 5 3 1 10 3 4 5 2 8 9 3 3 10 17 17 18 20 20 20 25 28 30 33 35 35 34 33 31 30 30 28 27 23 20 16 12 9 8 8 6 5 5 5 5
7 5 9 6 7 4 5 3 9 4 10 6 12 6 9 5 6 14 21 26 24 25 25 26 26 28 32 35 37 38 38 37 37 36 35 33 31 28 23 19 16 13 10 11 10 9 8 6 6
9 11 11 7 16 18 10 12 13 4 5 10 12 22 14 15 24 19 20 27 22 23 28 29 27 28 32 36 37 41 42 42 41 40 39 37 34 31 28 24 21 17 13 14 13 12 10 7 7
5 17 19 11 14 8 6 14 16 23 14 27 30 29 33 30 32 27 24 16 20 22 23 23 28 29 31 37 39 41 44 45 45 45 43 41 39 35 30 28 24 20 17 16 16 14 11 9 8
14 7 18 27 18 18 15 19 15 31 32 36 35 35 38 37 33 29 24 29 27 23 22 23 28 27 30 37 41 41 42 45 46 47 47 45 42 38 34 30 26 23 20 19 18 16 14 11 11
2 14 15 15 15 13 10 18 12 15 23 26 28 36 38 38 37 35 32 30 28 28 26 27 29 29 31 31 37 39 42 44 45 48 49 48 47 41 34 32 30 26 23 20 17 16 15 15 14
10 6 3 8 10 10 15 20 28 34 28 32 38 41 40 39 37 36 33 32 27 29 28 30 36 35 33 32 33 39 39 36 39 42 47 49 49 41 34 33 31 27 23 20 18 17 17 17 16
4 5 16 14 8 7 14 29 20 22 26 33 36 36 35 35 32 31 30 32 34 36 38 41 41 36 31 30 34 36 35 33 35 40 44 45 46 39 34 34 31 24 21 21 18 18 18 17 18
4 16 9 5 8 10 13 31 7 16 18 24 28 32 35 39 38 38 39 35 33 38 39 37 37 34 29 27 31 33 30 32 34 40 41 41 35 30 30 30 26 21 21 19 17 17 17 17 18
9 5 2 5 5 15 14 32 14 21 23 25 27 36 39 40 38 39 39 40 42 37 40 34 33 33 31 29 30 31 34 36 36 39 37 34 24 24 23 25 25 23 20 17 15 14 16 18 17
4 2 1 3 4 4 17 21 16 13 21 22 30 34 38 42 45 45 43 39 33 32 31 25 27 26 26 27 30 33 35 36 36 35 28 24 20 19 21 23 22 14 16 15 13 15 18 18 18
6 1 3 5 8 4 7 12 9 8 14 22 29 30 33 39 43 41 39 33 35 33 28 27 26 25 25 29 31 32 32 36 35 24 19 17 19 20 17 15 18 16 16 15 15 16 18 18 17
4 9 3 6 8 12 8 18 12 8 16 27 31 33 38 37 40 39 35 33 32 35 33 32 29 32 30 30 30 31 31 27 23 22 18 20 18 16 15 16 13 14 15 13 14 16 17 15 14
5 3 1 2 3 8 2 9 15 15 18 14 19 29 32 37 37 38 35 36 37 35 35 30 27 27 27 27 29 30 27 24 21 18 17 20 18 14 13 15 13 14 11 14 15 16 15 12 11
9 8 8 7 6 3 3 5 13 5 11 12 16 31 36 45 44 44 43 43 39 37 36 29 23 25 26 25 24 21 19 16 14 16 19 19 15 18 15 16 13 12 14 15 16 13 11 11 11
6 6 4 1 2 7 7 6 21 9 12 7 15 25 32 31 30 29 27 22 25 26 28 28 24 24 22 19 15 15 12 13 18 21 23 15 20 19 17 13 11 13 15 14 11 10 11 10 11
5 5 2 1 2 12 12 9 24 4 6 4 9 15 18 18 20 23 21 23 23 24 19 13 14 16 15 14 13 12 10 11 16 20 18 14 17 15 12 10 12 13 12 10 9 8 7 7 7
7 7 5 6 6 5 6 12 8 11 13 18 14 18 24 27 23 20 19 20 15 9 10 14 17 17 17 16 17 15 13 13 14 13 13 11 11 11 11 10 11 11 10 9 8 8 6 7 7
4 4 7 3 3 1 5 7 8 16 10 8 9 19 24 25 21 20 17 9 7 13 16 17 18 19 19 20 20 18 16 15 14 13 12 12 12 10 9 9 9 7 6 6 6 7 8 8 9
4 4 3 1 4 5 6 6 6 6 2 4 8 11 27 25 12 10 10 12 17 19 19 19 19 20 21 20 19 19 18 16 14 14 15 13 10 8 7 8 7 5 4 4 5 9 10 13 12
1 1 2 2 5 4 2 5 6 15 4 8 10 20 28 11 13 14 17 21 21 20 21 21 20 22 22 20 20 19 17 16 15 14 12 9 8 7 10 8 7 4 0 4 5 7 9 11 10
2 3 1 4 8 4 3 6 6 6 7 8 13 23 15 4 15 21 25 25 24 23 23 23 23 22 21 20 17 16 15 12 11 10 9 9 10 11 11 8 4 1 4 5 7 9 11 14 13

GFSSGP_850_spd_033.txt.gz
Wind_Speed
7 5 8 6 3 1 4 5 2 4 3 4 3 6 19 7 12 3 12 21 18 16 16 23 22 19 17 15 14 14 14 13 13 13 12 11 10 9 8 7 6 5 4 3 2 1 2 3 4
7 7 8 2 3 5 5 5 8 9 2 9 8 6 9 9 17 2 19 21 18 14 16 21 21 20 18 15 14 15 13 13 13 12 11 10 9 8 7 6 6 5 4 4 3 2 2 1 2
8 10 4 3 4 9 4 7 7 2 9 9 3 4 4 4 14 9 21 21 19 17 18 20 20 19 18 16 15 16 15 14 14 13 12 10 9 8 7 6 6 5 4 3 3 2 2 2 2
9 5 1 5 13 9 6 2 2 8 4 2 5 2 5 7 12 19 23 20 18 18 20 20 19 20 19 17 17 18 17 17 16 15 14 13 11 9 8 6 5 5 4 3 2 2 2 2 2
10 4 5 5 12 7 10 11 11 12 8 7 7 4 2 5 16 22 20 20 16 16 18 18 20 23 21 20 20 20 19 18 18 17 16 15 13 11 9 8 6 4 3 3 3 2 2 3 4
4 2 4 14 13 7 9 12 11 10 9 7 6 5 3 11 18 23 19 19 13 12 15 18 24 24 22 23 23 22 22 21 21 20 18 18 16 15 12 10 7 5 3 3 3 2 2 3 5
6 3 9 10 10 7 15 16 14 11 2 4 5 7 3 15 18 20 19 19 16 14 14 17 21 23 25 26 27 25 25 24 24 23 22 21 20 18 15 12 9 6 5 3 2 3 2 3 4
7 3 8 9 11 12 4 5 4 14 7 2 5 4 4 15 13 16 18 20 19 17 17 18 21 23 26 29 30 29 28 28 27 26 26 25 23 21 18 15 13 10 8 6 4 4 4 4 4
11 7 12 14 12 8 1 4 4 3 7 4 6 6 4 10 13 5 10 16 20 18 19 18 20 23 26 30 32 32 32 31 31 30 30 29 28 26 22 19 15 13 10 7 7 8 6 5 6
12 10 16 10 14 8 16 10 5 3 5 5 4 8 9 11 8 3 4 9 17 21 20 22 22 22 25 30 32 35 36 36 37 36 36 35 33 30 26 23 19 16 13 9 10 10 9 8 7
13 19 20 19 21 18 18 15 6 6 11 15 7 4 9 9 11 10 10 14 19 20 24 22 26 28 30 31 34 37 39 40 41 41 41 38 37 34 30 27 24 20 16 13 12 12 12 10 9
14 22 27 20 9 12 18 21 20 20 25 17 22 23 24 21 21 21 20 17 18 12 14 19 24 30 31 34 33 35 40 42 43 44 44 43 41 39 36 32 28 22 18 15 14 14 13 12 11
23 23 19 29 19 16 13 27 23 26 26 26 28 30 28 25 29 24 19 21 20 21 20 18 20 21 23 28 33 35 38 43 44 45 45 46 46 44 39 34 28 24 19 18 17 16 15 15 13
14 25 29 22 20 25 20 30 24 31 20 23 26 29 28 25 29 30 29 26 25 25 25 21 20 20 22 24 30 29 36 39 44 45 43 47 48 48 42 36 31 26 23 22 19 17 16 16 16
21 20 15 17 28 17 11 22 34 32 32 30 36 32 37 36 33 37 33 28 26 27 21 21 24 26 28 27 27 30 30 36 39 42 42 45 47 48 42 38 34 28 26 26 25 22 18 18 18
11 15 22 25 14 12 19 30 37 29 30 36 35 36 34 32 30 31 26 24 25 26 27 23 29 28 28 28 26 27 28 33 34 36 40 43 42 40 39 38 37 30 27 28 24 18 16 17 18
13 21 26 22 24 17 19 31 28 32 23 25 26 25 24 26 28 33 34 33 29 26 26 31 30 30 29 29 25 26 29 32 30 33 38 39 35 32 27 33 35 30 30 28 20 19 15 15 17
17 20 20 21 13 21 25 33 22 17 15 23 24 25 28 31 35 40 37 34 36 37 36 30 28 27 27 27 26 27 29 30 30 33 35 34 28 22 21 25 27 30 27 25 21 17 12 13 16
16 9 21 18 10 21 25 28 24 24 30 32 33 33 34 36 34 34 44 41 37 32 27 26 23 22 22 22 24 26 27 29 31 31 31 26 20 16 19 22 25 24 26 22 18 14 12 15 17
21 20 12 9 10 7 15 21 18 17 20 27 30 32 34 35 34 35 40 37 35 34 30 26 24 23 26 26 24 23 24 27 27 28 25 17 15 16 19 19 19 22 22 21 16 14 15 17 18
17 22 21 11 10 14 14 23 23 21 23 28 33 35 35 35 35 38 40 35 30 28 27 25 26 24 23 26 26 23 23 23 23 24 21 17 16 15 17 16 16 19 19 17 15 14 16 17 16
18 10 13 19 15 13 4 12 13 12 17 17 23 28 32 33 33 43 42 38 33 27 27 26 28 28 28 26 26 24 23 22 21 16 15 15 15 16 16 17 18 17 16 13 12 16 16 14 11
17 15 11 6 9 12 20 12 19 14 22 19 18 26 31 34 36 34 35 38 36 36 35 32 29 28 26 21 21 20 20 19 15 13 15 18 17 15 16 18 16 14 11 12 15 14 13 12 11
10 16 17 15 11 14 18 11 23 18 21 20 23 28 25 26 24 29 28 24 21 20 19 21 23 25 23 19 16 17 15 13 14 18 21 20 18 18 16 16 14 14 12 14 13 12 11 11 10
9 11 9 11 13 18 6 13 23 3 9 12 9 16 22 20 18 19 20 20 18 18 19 21 19 17 16 15 15 14 12 11 16 21 23 21 17 19 17 15 13 12 12 13 11 10 9 9 8
14 15 9 16 14 19 13 12 8 9 10 13 16 19 18 19 17 19 18 16 16 16 14 10 12 14 17 18 18 16 15 17 20 22 20 15 20 17 14 15 12 12 12 11 10 8 8 8 7
13 10 19 6 4 11 12 19 17 16 16 10 12 13 20 20 21 15 12 14 10 8 12 16 19 21 22 21 20 20 19 20 19 18 18 19 16 14 12 12 11 11 9 9 9 9 9 9 8
8 5 10 9 6 8 9 18 9 7 7 3 12 18 25 25 13 4 9 11 14 18 21 22 21 22 22 22 22 22 21 20 19 19 18 16 14 12 11 10 9 9 8 7 7 9 11 11 11
9 7 6 7 11 3 3 3 2 6 11 11 14 22 24 21 5 5 11 18 21 22 23 23 23 24 24 24 24 23 22 20 18 16 15 14 12 10 8 10 10 8 5 4 6 8 10 12 12
7 4 9 8 17 10 8 5 4 12 10 15 19 24 29 15 5 3 14 22 23 24 24 24 25 25 24 24 24 22 19 18 17 16 13 12 11 11 12 12 9 5 2 4 6 7 9 13 13